Tucson, AZ

7:14 PM MST on November 16, 2019 (GMT -0700)
Tucson International

Weather History for KTUS - July, 2019

Change the Weather History Date:

Thursday, July 18, 2019

  Actual Average Record
Temperature  
Mean Temperature 92 °F 87 °F  
Max Temperature 103 °F 99 °F 109 °F (1989)
Min Temperature 80 °F 75 °F 60 °F (1913)
Degree Days  
Heating Degree Days 0 0  
Month to date heating degree days 0 0  
Since 1 June heating degree days 0 0  
Since 1 July heating degree days 0 0  
Cooling Degree Days 27 22  
Month to date cooling degree days 462 408  
Year to date cooling degree days 1447 1504  
Since 1 June cooling degree days 1075 1002  
Growing Degree Days 41 (Base 50)    
Moisture  
Dew Point 58 °F    
Average Humidity 34    
Maximum Humidity 50    
Minimum Humidity 13    
Precipitation  
Precipitation 0.00 in 0.09 in 0.97 in (1919)
Month to date precipitation 0.29 1.07  
Year to date precipitation 5.32 4.34  
Sea Level Pressure  
Sea Level Pressure 29.82 in    
Wind  
Wind Speed 8 mph (South)    
Max Wind Speed 18 mph    
Max Gust Speed 28 mph    
Visibility 10 miles    
Events      
T = Trace of Precipitation, MM = Missing Value Source: NWS Daily Summary

Daily Weather History Graph

Daily Weather History Graph

Search for Another Location

Airport or City:

Astronomy

Jul. 18, 2019 Rise Set
Actual Time 5:29 AM MST 7:29 PM MST
Civil Twilight 5:02 AM MST 7:57 PM MST
Nautical Twilight 4:28 AM MST 8:30 PM MST
Astronomical Twilight 3:53 AM MST 9:06 PM MST
Moon 9:01 PM MST (7/18) 7:00 AM MST (7/18)
Length of Visible Light 14h 55m
Length of Day
14h 00m
Waning Gibbous, 97% of the Moon is Illuminated
Jul 18
Waning Gibbous
Jul 24
Last Quarter
Jul 31
New
Aug 7
First Quarter
Aug 15
Full

Hourly Weather History & Observations

Time (MST) Temp. Heat Index Dew Point Humidity Pressure Visibility Wind Dir Wind Speed Gust Speed Precip Events Conditions
12:53 AM 84.0 °F 83.5 °F 57.9 °F 41% 29.86 in 10.0 mi ESE 5.8 mph - N/A   Clear
1:53 AM 82.0 °F 82.1 °F 59.0 °F 45% 29.85 in 10.0 mi SE 8.1 mph - N/A   Clear
2:53 AM 81.0 °F 81.3 °F 59.0 °F 47% 29.85 in 10.0 mi SSE 5.8 mph - N/A   Clear
3:53 AM 80.1 °F 80.9 °F 60.1 °F 50% 29.86 in 10.0 mi SSE 12.7 mph - N/A   Clear
4:53 AM 81.0 °F 81.6 °F 60.1 °F 49% 29.86 in 10.0 mi SSE 9.2 mph - N/A   Clear
5:53 AM 80.1 °F 80.9 °F 60.1 °F 50% 29.87 in 10.0 mi SSE 9.2 mph - N/A   Clear
6:53 AM 81.0 °F 81.7 °F 61.0 °F 50% 29.88 in 10.0 mi SSE 5.8 mph - N/A   Clear
7:53 AM 84.0 °F 84.4 °F 61.0 °F 46% 29.89 in 10.0 mi Calm Calm - N/A   Clear
8:53 AM 87.1 °F 87.0 °F 61.0 °F 41% 29.89 in 10.0 mi North 5.8 mph - N/A   Clear
9:53 AM 91.0 °F 90.5 °F 60.1 °F 35% 29.88 in 10.0 mi North 5.8 mph - N/A   Clear
10:53 AM 93.9 °F 93.2 °F 59.0 °F 31% 29.86 in 10.0 mi WNW 5.8 mph - N/A   Clear
11:53 AM 96.1 °F 95.2 °F 57.9 °F 28% 29.83 in 10.0 mi NNW 9.2 mph - N/A   Clear
12:53 PM 96.1 °F 95.6 °F 59.0 °F 29% 29.81 in 10.0 mi Variable 4.6 mph - N/A   Clear
1:53 PM 99.0 °F 98.1 °F 57.9 °F 25% 29.78 in 10.0 mi North 10.4 mph - N/A   Clear
2:53 PM 102.0 °F 100.1 °F 54.0 °F 20% 29.75 in 10.0 mi North 12.7 mph 17.3 mph N/A   Clear
3:53 PM 102.0 °F 100.6 °F 55.0 °F 21% 29.72 in 10.0 mi North 9.2 mph 19.6 mph N/A   Partly Cloudy
4:53 PM 100.0 °F 97.9 °F 54.0 °F 21% 29.72 in 10.0 mi WNW 10.4 mph 20.7 mph N/A   Clear
5:53 PM 96.1 °F 94.5 °F 55.9 °F 26% 29.72 in 10.0 mi West 15.0 mph 23.0 mph N/A   Clear
6:53 PM 95.0 °F 93.4 °F 55.9 °F 27% 29.73 in 10.0 mi North - - N/A   Clear
7:53 PM 93.0 °F 91.4 °F 55.9 °F 29% 29.75 in 10.0 mi North - - N/A   Clear
8:43 PM 91.9 °F 90.6 °F 57.0 °F 31% 29.92 in 10.0 mi West 8.1 mph - N/A   Clear
8:53 PM 91.9 °F 90.6 °F 57.0 °F 31% 29.77 in 10.0 mi West 8.1 mph - N/A   Clear
9:53 PM 90.0 °F 89.1 °F 59.0 °F 35% 29.79 in 10.0 mi SE 9.2 mph - N/A   Clear
9:54 PM 90.0 °F 89.7 °F 60.1 °F 37% 29.95 in 10.0 mi SSE 6.9 mph - N/A   Clear
10:53 PM 89.1 °F 88.0 °F 57.9 °F 35% 29.78 in 10.0 mi SSE 6.9 mph - N/A   Clear
11:53 PM 89.1 °F 88.0 °F 57.9 °F 35% 29.78 in 10.0 mi SSE 8.1 mph - N/A   Scattered Clouds